| time (UTC) | temp C | wind direction | speed KPH | gust KPH | rain 1hr cm | rain 24hr cm | rain mn cm | humidity % | barometer mb |
| 20260506150517 | 17 | 180 | 4.8 | 12.9 | 0.05 | 0.25 | 0.23 | 90 | 1013.1 |
| 20260506145517 | 17 | 225 | 4.8 | 11.3 | 0.05 | 0.25 | 0.23 | 89 | 1013.3 |
| 20260506144517 | 17 | 225 | 8.0 | 25.7 | 0.00 | 0.20 | 0.18 | 87 | 1012.8 |
| 20260506143617 | 17 | 225 | 8.0 | 16.1 | 0.00 | 0.20 | 0.18 | 87 | 1012.7 |
| 20260506142517 | 17 | 225 | 11.3 | 29.0 | 0.00 | 0.20 | 0.18 | 87 | 1012.5 |
| 20260506141517 | 17 | 225 | 8.0 | 19.3 | 0.00 | 0.20 | 0.18 | 87 | 1012.4 |
| 20260506140517 | 18 | 225 | 9.7 | 24.1 | 0.00 | 0.20 | 0.18 | 86 | 1012.2 |
| 20260506135517 | 17 | 225 | 6.4 | 16.1 | 0.03 | 0.20 | 0.18 | 87 | 1011.8 |
| 20260506134517 | 17 | 225 | 4.8 | 12.9 | 0.03 | 0.20 | 0.18 | 88 | 1011.3 |
| 20260506133517 | 17 | 225 | 9.7 | 27.4 | 0.03 | 0.20 | 0.18 | 88 | 1011.9 |
| 20260506132517 | 17 | 203 | 8.0 | 17.7 | 0.03 | 0.20 | 0.18 | 88 | 1012.0 |
| 20260506131517 | 17 | 203 | 8.0 | 16.1 | 0.05 | 0.20 | 0.18 | 88 | 1011.8 |
| 20260506130517 | 17 | 225 | 8.0 | 24.1 | 0.08 | 0.20 | 0.18 | 88 | 1011.9 |
| 20260506125537 | 17 | 225 | 8.0 | 20.9 | 0.08 | 0.18 | 0.15 | 87 | 1012.0 |
| 20260506124517 | 17 | 203 | 4.8 | 14.5 | 0.08 | 0.18 | 0.15 | 87 | 1011.9 |
| 20260506123517 | 17 | 203 | 6.4 | 16.1 | 0.08 | 0.18 | 0.15 | 87 | 1011.4 |
| 20260506122517 | 17 | 225 | 4.8 | 12.9 | 0.08 | 0.18 | 0.15 | 87 | 1011.6 |
| 20260506121517 | 17 | 203 | 4.8 | 11.3 | 0.05 | 0.15 | 0.13 | 85 | 1012.0 |
| 20260506120517 | 17 | 203 | 6.4 | 16.1 | 0.05 | 0.13 | 0.10 | 83 | 1012.1 |
| 20260506115517 | 17 | 180 | 4.8 | 12.9 | 0.03 | 0.10 | 0.08 | 80 | 1011.7 |
| 20260506114517 | 18 | 225 | 4.8 | 12.9 | 0.03 | 0.10 | 0.08 | 78 | 1011.8 |
| 20260506113517 | 18 | 248 | 4.8 | 14.5 | 0.05 | 0.10 | 0.08 | 78 | 1011.7 |
| 20260506112538 | 18 | 270 | 3.2 | 9.7 | 0.05 | 0.10 | 0.08 | 78 | 1011.5 |
| 20260506111537 | 18 | 203 | 9.7 | 22.5 | 0.05 | 0.10 | 0.08 | 75 | 1010.8 |
| 20260506110517 | 18 | 203 | 9.7 | 20.9 | 0.03 | 0.08 | 0.05 | 74 | 1011.2 |
| 20260506105517 | 18 | 203 | 3.2 | 9.7 | 0.03 | 0.08 | 0.05 | 76 | 1011.3 |
| 20260506104516 | 19 | 203 | 4.8 | 14.5 | 0.03 | 0.08 | 0.05 | 73 | 1011.2 |
| 20260506103517 | 20 | 225 | 6.4 | 12.9 | 0.00 | 0.05 | 0.03 | 69 | 1011.0 |
| 20260506102537 | 20 | 203 | 6.4 | 16.1 | 0.00 | 0.05 | 0.03 | 68 | 1010.6 |
| 20260506101517 | 20 | 180 | 4.8 | 17.7 | 0.00 | 0.05 | 0.03 | 69 | 1010.6 |
| 20260506100537 | 20 | 225 | 8.0 | 25.7 | 0.00 | 0.05 | 0.03 | 68 | 1010.6 |
| 20260506095557 | 20 | 180 | 9.7 | 24.1 | 0.00 | 0.05 | 0.03 | 66 | 1010.5 |
| 20260506094517 | 20 | 203 | 14.5 | 22.5 | 0.00 | 0.05 | 0.03 | 65 | 1010.6 |
| 20260506093536 | 20 | 158 | 11.3 | 27.4 | 0.00 | 0.05 | 0.03 | 65 | 1010.7 |
| 20260506092517 | 20 | 225 | 9.7 | 22.5 | 0.00 | 0.05 | 0.03 | 65 | 1010.6 |
| 20260506091516 | 20 | 203 | 6.4 | 20.9 | 0.00 | 0.05 | 0.03 | 65 | 1010.8 |
| 20260506090517 | 20 | 180 | 9.7 | 24.1 | 0.00 | 0.05 | 0.03 | 64 | 1010.6 |
| 20260506085537 | 20 | 180 | 9.7 | 22.5 | 0.00 | 0.05 | 0.03 | 64 | 1010.6 |
| 20260506084516 | 20 | 203 | 9.7 | 24.1 | 0.00 | 0.05 | 0.03 | 63 | 1010.6 |
| 20260506083516 | 20 | 203 | 8.0 | 19.3 | 0.00 | 0.05 | 0.03 | 62 | 1010.5 |
| 20260506082516 | 20 | 203 | 12.9 | 24.1 | 0.00 | 0.05 | 0.03 | 62 | 1010.2 |
| 20260506081516 | 20 | 203 | 9.7 | 20.9 | 0.00 | 0.05 | 0.03 | 61 | 1010.5 |
| 20260506080516 | 20 | 203 | 9.7 | 27.4 | 0.00 | 0.05 | 0.03 | 61 | 1010.7 |
| 20260506073516 | 20 | 203 | 9.7 | 24.1 | 0.00 | 0.05 | 0.03 | 59 | 1010.7 |
| 20260506072536 | 20 | 203 | 8.0 | 22.5 | 0.00 | 0.05 | 0.03 | 59 | 1010.9 |
| 20260506071517 | 20 | 203 | 8.0 | 24.1 | 0.00 | 0.05 | 0.03 | 59 | 1011.1 |
| 20260506070516 | 20 | 203 | 8.0 | 33.8 | 0.00 | 0.05 | 0.03 | 59 | 1011.0 |
| 20260506062516 | 16 | 203 | 1.6 | 3.2 | 0.03 | 0.05 | 0.03 | 71 | 1011.3 |
| 20260506061516 | 16 | 203 | 1.6 | 4.8 | 0.03 | 0.05 | 0.03 | 72 | 1011.5 |
| 20260506060516 | 17 | 203 | 1.6 | 11.3 | 0.03 | 0.05 | 0.03 | 71 | 1011.8 |
| 20260506050516 | 14 | 0 | 1.6 | 3.2 | 0.00 | 0.03 | 0.00 | 83 | 1011.6 |
| 20260506044518 | 14 | 0.0 | 3.2 | 0.03 | 0.03 | 0.00 | 86 | 1011.6 | |
| 20260506043516 | 14 | 68 | 1.6 | 3.2 | 0.03 | 0.03 | 0.00 | 86 | 1012.0 |
| 20260506042516 | 15 | 23 | 1.6 | 4.8 | 0.03 | 0.03 | 0.00 | 85 | 1012.1 |
| 20260506041516 | 15 | 338 | 1.6 | 1.6 | 0.03 | 0.03 | 0.00 | 84 | 1012.5 |
| 20260506040516 | 15 | 0.0 | 3.2 | 0.03 | 0.03 | 0.00 | 81 | 1012.6 | |
| 20260506035517 | 16 | 338 | 1.6 | 3.2 | 0.03 | 0.03 | 0.03 | 77 | 1012.8 |
| 20260506034517 | 16 | 0.0 | 1.6 | 0.00 | 0.00 | 0.00 | 76 | 1013.1 | |
| 20260506033517 | 16 | 0.0 | 3.2 | 0.00 | 0.00 | 0.00 | 75 | 1012.9 | |
| 20260506032516 | 16 | 135 | 1.6 | 3.2 | 0.00 | 0.00 | 0.00 | 76 | 1012.9 |
| 20260506031537 | 16 | 0.0 | 3.2 | 0.00 | 0.00 | 0.00 | 73 | 1012.7 | |
| 20260506030537 | 16 | 0.0 | 3.2 | 0.00 | 0.00 | 0.00 | 70 | 1012.7 | |
| 20260506025517 | 16 | 0.0 | 3.2 | 0.00 | 0.00 | 0.00 | 71 | 1012.3 | |
| 20260506024525 | 16 | 0.0 | 1.6 | 0.00 | 0.00 | 0.00 | 70 | 1012.3 | |
| 20260506023517 | 16 | 338 | 1.6 | 1.6 | 0.00 | 0.00 | 0.00 | 70 | 1012.3 |
| 20260506022517 | 16 | 0.0 | 0.0 | 0.00 | 0.00 | 0.00 | 68 | 1012.3 | |
| 20260506021516 | 17 | 0.0 | 3.2 | 0.00 | 0.00 | 0.00 | 67 | 1012.2 | |
| 20260506020516 | 17 | 338 | 1.6 | 3.2 | 0.00 | 0.00 | 0.00 | 67 | 1012.1 |
| 20260506015516 | 17 | 0.0 | 1.6 | 0.00 | 0.00 | 0.00 | 67 | 1011.8 | |
| 20260506014517 | 17 | 0 | 1.6 | 3.2 | 0.00 | 0.00 | 0.00 | 67 | 1011.6 |
| 20260506013537 | 17 | 315 | 1.6 | 3.2 | 0.00 | 0.00 | 0.00 | 67 | 1011.3 |
| 20260506012516 | 17 | 338 | 1.6 | 3.2 | 0.00 | 0.00 | 0.00 | 66 | 1011.3 |
| 20260506011517 | 17 | 315 | 1.6 | 3.2 | 0.00 | 0.00 | 0.00 | 67 | 1011.2 |
| 20260506010516 | 17 | 0.0 | 1.6 | 0.00 | 0.00 | 0.00 | 66 | 1010.9 | |
| 20260506005517 | 17 | 0 | 1.6 | 3.2 | 0.00 | 0.00 | 0.00 | 67 | 1011.1 |
| 20260506004516 | 18 | 0.0 | 1.6 | 0.00 | 0.00 | 0.00 | 65 | 1011.4 | |
| 20260506003516 | 18 | 0.0 | 1.6 | 0.00 | 0.00 | 0.00 | 64 | 1011.1 | |
| 20260506002516 | 18 | 0.0 | 1.6 | 0.00 | 0.00 | 0.00 | 65 | 1011.2 | |
| 20260506001516 | 18 | 0.0 | 1.6 | 0.00 | 0.00 | 0.00 | 63 | 1011.3 | |
| 20260506000516 | 19 | 0.0 | 1.6 | 0.00 | 0.00 | 0.00 | 64 | 1011.0 | |
| 20260505235536 | 19 | 0 | 1.6 | 1.6 | 0.00 | 0.00 | 0.00 | 64 | 1010.8 |
| 20260505234516 | 20 | 0.0 | 1.6 | 0.00 | 0.00 | 0.00 | 65 | 1010.9 | |
| 20260505233516 | 20 | 0 | 1.6 | 1.6 | 0.00 | 0.00 | 0.00 | 63 | 1010.8 |
| 20260505232516 | 21 | 0.0 | 1.6 | 0.00 | 0.00 | 0.00 | 66 | 1010.9 | |
| 20260505231516 | 21 | 0.0 | 1.6 | 0.00 | 0.00 | 0.00 | 61 | 1011.0 | |
| 20260505230516 | 22 | 0.0 | 0.0 | 0.00 | 0.00 | 0.00 | 60 | 1011.4 | |
| 20260505225516 | 22 | 0.0 | 3.2 | 0.00 | 0.00 | 0.00 | 51 | 1011.4 | |
| 20260505224516 | 22 | 0.0 | 3.2 | 0.00 | 0.00 | 0.00 | 49 | 1011.4 | |
| 20260505223516 | 22 | 203 | 1.6 | 4.8 | 0.00 | 0.00 | 0.00 | 47 | 1011.5 |
| 20260505222516 | 22 | 225 | 1.6 | 4.8 | 0.00 | 0.00 | 0.00 | 48 | 1011.5 |
| 20260505221516 | 22 | 0.0 | 1.6 | 0.00 | 0.00 | 0.00 | 53 | 1011.6 | |
| 20260505220516 | 22 | 0.0 | 3.2 | 0.00 | 0.00 | 0.00 | 50 | 1011.8 | |
| 20260505215516 | 22 | 338 | 1.6 | 3.2 | 0.00 | 0.00 | 0.00 | 48 | 1011.9 |
| 20260505214516 | 22 | 203 | 1.6 | 6.4 | 0.00 | 0.00 | 0.00 | 48 | 1011.9 |
| 20260505213516 | 22 | 225 | 3.2 | 8.0 | 0.00 | 0.00 | 0.00 | 46 | 1012.0 |
| 20260505212516 | 22 | 270 | 3.2 | 14.5 | 0.00 | 0.00 | 0.00 | 46 | 1012.2 |
| 20260505211516 | 22 | 270 | 3.2 | 6.4 | 0.00 | 0.00 | 0.00 | 46 | 1012.1 |
| 20260505210516 | 23 | 203 | 3.2 | 9.7 | 0.00 | 0.00 | 0.00 | 45 | 1012.2 |
| 20260505205516 | 23 | 293 | 3.2 | 9.7 | 0.00 | 0.00 | 0.00 | 46 | 1012.7 |
| 20260505204516 | 23 | 203 | 6.4 | 14.5 | 0.00 | 0.00 | 0.00 | 47 | 1012.6 |
| 20260505203516 | 22 | 225 | 4.8 | 11.3 | 0.00 | 0.00 | 0.00 | 48 | 1012.8 |
| 20260505202536 | 22 | 225 | 3.2 | 12.9 | 0.00 | 0.00 | 0.00 | 48 | 1013.0 |
| 20260505201516 | 22 | 225 | 3.2 | 9.7 | 0.00 | 0.00 | 0.00 | 48 | 1012.9 |
| 20260505200536 | 22 | 180 | 4.8 | 11.3 | 0.00 | 0.00 | 0.00 | 48 | 1013.1 |
| 20260505195536 | 23 | 225 | 4.8 | 11.3 | 0.00 | 0.00 | 0.00 | 48 | 1013.2 |
| 20260505194536 | 22 | 225 | 4.8 | 14.5 | 0.00 | 0.00 | 0.00 | 48 | 1013.3 |
| 20260505193517 | 23 | 225 | 4.8 | 11.3 | 0.00 | 0.00 | 0.00 | 46 | 1013.7 |
| 20260505192516 | 23 | 203 | 6.4 | 17.7 | 0.00 | 0.00 | 0.00 | 45 | 1013.7 |
| 20260505191515 | 23 | 248 | 4.8 | 11.3 | 0.00 | 0.00 | 0.00 | 44 | 1014.0 |
| 20260505190516 | 23 | 225 | 4.8 | 11.3 | 0.00 | 0.00 | 0.00 | 48 | 1014.2 |
| 20260505185516 | 22 | 225 | 6.4 | 14.5 | 0.00 | 0.00 | 0.00 | 48 | 1014.5 |
| 20260505184516 | 22 | 248 | 6.4 | 17.7 | 0.00 | 0.00 | 0.00 | 47 | 1014.4 |
| 20260505183516 | 22 | 225 | 4.8 | 14.5 | 0.00 | 0.00 | 0.00 | 48 | 1014.5 |
| 20260505182520 | 22 | 225 | 4.8 | 16.1 | 0.00 | 0.00 | 0.00 | 49 | 1014.8 |
| 20260505181516 | 22 | 203 | 4.8 | 16.1 | 0.00 | 0.00 | 0.00 | 47 | 1015.1 |
| 20260505180515 | 22 | 270 | 4.8 | 14.5 | 0.00 | 0.00 | 0.00 | 48 | 1015.1 |
| 20260505175516 | 22 | 203 | 9.7 | 17.7 | 0.00 | 0.00 | 0.00 | 45 | 1015.0 |
| 20260505174515 | 22 | 225 | 3.2 | 11.3 | 0.00 | 0.00 | 0.00 | 49 | 1015.4 |
| 20260505173516 | 22 | 225 | 6.4 | 11.3 | 0.00 | 0.00 | 0.00 | 47 | 1015.4 |
| 20260505172515 | 22 | 225 | 6.4 | 14.5 | 0.00 | 0.00 | 0.00 | 46 | 1015.4 |
| 20260505171516 | 22 | 203 | 6.4 | 16.1 | 0.00 | 0.00 | 0.00 | 49 | 1015.7 |
| 20260505170536 | 21 | 203 | 6.4 | 20.9 | 0.00 | 0.00 | 0.00 | 46 | 1016.0 |
| 20260505165515 | 21 | 203 | 6.4 | 17.7 | 0.00 | 0.00 | 0.00 | 50 | 1016.2 |
| 20260505164515 | 21 | 203 | 8.0 | 17.7 | 0.00 | 0.00 | 0.00 | 48 | 1016.1 |
| 20260505163516 | 21 | 180 | 8.0 | 19.3 | 0.00 | 0.00 | 0.00 | 50 | 1016.2 |
| 20260505162556 | 21 | 225 | 4.8 | 12.9 | 0.00 | 0.00 | 0.00 | 53 | 1016.4 |
| 20260505161515 | 21 | 203 | 6.4 | 17.7 | 0.00 | 0.00 | 0.00 | 52 | 1016.3 |
| 20260505160517 | 21 | 203 | 6.4 | 19.3 | 0.00 | 0.00 | 0.00 | 53 | 1016.3 |
| 20260505152557 | 21 | 203 | 3.2 | 8.0 | 0.00 | 0.00 | 0.00 | 52 | 1016.3 |
| 20260505151517 | 20 | 203 | 4.8 | 11.3 | 0.00 | 0.00 | 0.00 | 53 | 1016.2 |